Regional Weather Roundup
Issued by NWS Upton, NY

Current Version | Previous Version | Text Only | Print | Product List | Glossary On
Versions: 1 2 3 4 5 6 7 8 9 10 11 12 13 14 15 16 17 18 19 20 21 22 23 24 25 26 27
000
ASUS41 KOKX 191408
RWROKX

REGIONAL WEATHER ROUNDUP
NATIONAL WEATHER SERVICE NEW YORK NY
1000 AM EDT THU OCT 19 2017

NOTE: "FAIR" INDICATES FEW OR NO CLOUDS BELOW 12,000 FEET WITH NO
SIGNIFICANT WEATHER AND/OR OBSTRUCTIONS TO VISIBILITY.

NYZ071-072-176-178-NJZ106-104-191500-
NEW YORK CITY METRO AREA

CITY           SKY/WX    TMP DP  RH WIND       PRES   REMARKS
Central Park   SUNNY     61  45  55 CALM      30.27F
Bronx Bot Gard   N/A     63  43  48 W6        30.27R
LaGuardia APRT MOSUNNY   63  45  51 SW8       30.24F
Kennedy INTL   MOSUNNY   62  52  69 SW13      30.27F
Breezy Point     N/A     59 N/A N/A SW10        N/A
Newark/Liberty MOSUNNY   61  49  64 SW8       30.25F
Teterboro      SUNNY     59  47  64 S8        30.24S
$$

NYZ177-179-078>081-191500-
LONG ISLAND NEW YORK

CITY           SKY/WX    TMP DP  RH WIND       PRES   REMARKS
Jones Beach      N/A     61 N/A N/A SW9G16      N/A
Matinecock PT    N/A     61 N/A N/A SW9         N/A
Farmingdale    SUNNY     63  50  62 SW10      30.26S
MacArthur/ISP  MOSUNNY   64  52  64 SW10      30.26R
Shirley        SUNNY     66  55  67 SW8       30.26S
Mt Sinai Harb    N/A    N/A N/A N/A SW6         N/A
Westhampton    SUNNY     65  54  67 SW10      30.27S
East Hampton   FAIR      64  52  66 SW9       30.25S
Montauk          N/A     65  56  72 VRB7      30.27S
$$

NYZ052-065-067-191500-
HUDSON VALLEY

CITY           SKY/WX    TMP DP  RH WIND       PRES   REMARKS
White Plains   MOSUNNY   61  46  57 SW5       30.23F
Larchmont Harb   N/A     61 N/A N/A S12         N/A
Croton On Huds   N/A     59 N/A N/A S6          N/A
Newburgh       SUNNY     57  50  77 W6        30.23F
Montgomery     SUNNY     56  49  77 SW7       30.21F
Poughkeepsie   SUNNY     58  48  69 S3        30.21F
Albany         MOSUNNY   57  46  66 S12       30.17F
$$

NJZ001-105-106-008-010-013-015-019>022-104-191500-
NEW JERSEY

CITY           SKY/WX    TMP DP  RH WIND       PRES   REMARKS
Newark/Liberty MOSUNNY   61  49  64 SW8       30.25F
Teterboro      SUNNY     59  47  64 S8        30.24S
Caldwell       SUNNY     57  49  74 SW5       30.25F
Somerville     SUNNY     54  50  86 S3        30.24F
Linden         FAIR      59  49  68 W3        30.26S
Perth Amboy      N/A     57 N/A N/A W5          N/A
Sussex         SUNNY     54  49  83 SW5       30.23F
Andover          N/A     55  48  77 SW6       30.24F
Trenton        SUNNY     57  50  77 SW8       30.26S
Millville      SUNNY     63  55  75 VRB5      30.29S
Atlantic City  SUNNY     62  53  72 SW8       30.29S
Wrightstown    SUNNY     58  50  75 SW8       30.25F
Toms River       N/A     61  51  70 SW10      30.29S
Belmar         SUNNY     58  50  75 SW6       30.28F
$$

PAZ047>061-062-071-191500-
EASTERN PENNSYLVANIA

CITY           SKY/WX    TMP DP  RH WIND       PRES   REMARKS
Philadelphia   MOSUNNY   58  50  75 SW8       30.28S
Allentown      SUNNY     55  47  74 CALM      30.26S
Scranton       SUNNY     57  45  64 NW3       30.22S
$$

CTZ002-004>006-009-010-012-RIZ004-006-007-MAZ004-011-015-191500-
SOUTHERN NEW ENGLAND
 IN CT

CITY           SKY/WX    TMP DP  RH WIND       PRES   REMARKS
Bradley INTL   PTSUNNY   58  50  75 S8        30.21F
Hartford       SUNNY     61  50  67 S7        30.22F
Danbury        SUNNY     61  47  59 SW6       30.24F
Wtrbury/Oxford SUNNY     57  48  72 VRB3      30.24F
Norwalk Harbor   N/A     59 N/A N/A SW8         N/A
Bridgeport     SUNNY     62  52  69 SW7       30.24F
Meriden        SUNNY     59  50  72 SE6       30.23F
New Haven      SUNNY     62  53  72 SW3       30.24F
Chester        FAIR      64  54  68 SW7       30.24S
Groton         SUNNY     65  52  62 SW12      30.24F
Wilimantic     SUNNY     50  48  93 CALM      30.24F

 IN RI

CITY           SKY/WX    TMP DP  RH WIND       PRES   REMARKS
Providence     MOSUNNY   64  57  78 S10       30.24F
Block Island   SUNNY     65  59  81 SW13      30.26F
Westerly       SUNNY     65  51  60 SW12      30.25F
 IN MA

CITY           SKY/WX    TMP DP  RH WIND       PRES   REMARKS
Boston         MOSUNNY   64  51  62 SW14      30.20F
Worcester      SUNNY     61  45  55 SW14      30.20F
Westfield      MOSUNNY   56  49  77 S7        30.19F
Provincetown   SUNNY     62  59  90 S14       30.24S
Nantucket      SUNNY     63  61  93 S15       30.27F
$$

ANZ330-335-338-340-345-350-353-355-191500-
COASTAL MARINE OBSERVATIONS


STATION/POSITION TIME  SKY/WX   TEMP    WIND        PRES    VSBY  WAVE
                                AIR SEA DIR/SP/G                  HT/PER
                 (UTC)          (F)     (DEG/KT/KT) (MB)    (MI)  (FT/S)
NY HARB ENTRANCE 1350            60 65  250/ 10/ 12 1024.4          3/ 9
20 S FIRE ISLAND 1350            62 63  250/ 12/ 14 1025.0          3/10
GREAT SOUTH BAY  1315            62 61  240/ 12/ 14   N/A
15 E BARNEGAT LI 1330               66                N/A           3/ 9
HUDSON CANYON    1250            64 64  210/ 10/ 12 1025.3          3/10
KINGS POINT      1342            61 65  230/  8/ 10 1025.0
EXECUTION ROCKS  1330            67     190/ 10/ 12   N/A
WESTERN LI SOUND 1249            61     220/ 10/ 14   N/A           0
CENTRAL LI SOUND 1315            63     230/ 10/ 14   N/A           1
EASTERN LI SOUND NOT AVBL
ROBBINS REEF     1348            59     250/ 10/ 12 1025.0
$$


>>>>>>>>>>>>>>>>>>>>>>>>>>>> KEY <<<<<<<<<<<<<<<<<<<<<<<<<<<
>                                                          <
>     SKY/WX - Sky Condition/Present Weather               <
>     TMP    - Temperature in Fahrenheit                   <
>     DP     - Dew Point in Fahrenheit                     <
>     RH     - Relative Humidity in Percent                <
>     WIND   - Direction (from) and Speed in MPH           <
>     PRES   - Mean Sea Level Pressure (inches of Hg)      <
>     WCI    - Wind Chill Index                            <
>     VSB    - VISIBILITY IN MILES                         <
>     HX     - HEAT INDEX                                  <
>     TC     - TEMPERATURE IN CELSIUS                      <
>     VRB    - VARIABLE WIND DIRECTION                     <
>                                                          <
>>>>>>>>>>>>>>>>>>>>>>>>>>>> KEY <<<<<<<<<<<<<<<<<<<<<<<<<<<




USA.gov is the U.S. government's official web portal to all federal, state and local government web resources and services.